www.prizrak.ws

Объявление

топ-линк
ГОСТЕВАЯ
Турнир "Отгадай-КА!"
Games of Forum
New Soft Download
призрачная галерея
Конкурс,акции,призы!
Rock - форум
ЯД раздача WMZ WMR
FAQ по форуму
раздача ICQ номеров
модеры форума
GOLD статусы к файлам!
форумный тотализатор
отгадай картинку и получи приз:
из какого АНИМЕ скрин?! ^_^||из какого фильма кадр?
mp3 конкурсы:угадай мелодию!||отгадай аниме OST!
Пользуйтесь ссылками: Мои сообщения и Поиск по форуму — это удобно!
Добавлять комментарии на форум могут только зарегистрированные пользователи за исключением сообщений в разделе "гостевая".
Перед использованием нашего форума просьба прочитать условия пользовательского соглашения!
При копировании любых материалов с форума, ссылка на форум http://prizrak.ws/ обязательна!
Добавь в закладки! Добавить в ИзбранноеДобавить в ИзбранноеДобавить в ИзбранноеДобавить в ИзбранноеДобавить в Избранное Сделай стартовой!

Информация о пользователе

Привет, Гость! Войдите или зарегистрируйтесь.


Вы здесь » www.prizrak.ws » Software, ОС, программное обеспечение..


Software, ОС, программное обеспечение..

Тем 43701 страница 43750 из 62625

Тема Ответов Просмотров Последнее сообщение
0 7 2017-12-29 20:58:58  TheCornor
43702 App Builder 2018.11  TheCornor
0 2 2017-12-29 20:52:21  TheCornor
0 2 2017-12-29 20:48:13  TheCornor
0 11 2017-12-29 20:45:51  TheCornor
43705 TurboMosaic 3.0.2.0  TheCornor
0 2 2017-12-29 20:43:21  TheCornor
0 2 2017-12-29 20:38:52  TheCornor
0 2 2017-12-29 20:27:24  TheCornor
0 2 2017-12-29 20:18:20  TheCornor
0 9 2017-12-29 20:14:03  TheCornor
43710 SysCAD 9.3 Build 137.21673  TheCornor
0 2 2017-12-29 20:11:57  TheCornor
0 2 2017-12-29 20:09:50  TheCornor
0 3 2017-12-29 20:05:40  TheCornor
0 1 2017-12-29 20:03:34  TheCornor
0 4 2017-12-29 19:50:21  TheCornor
0 2 2017-12-29 19:48:16  TheCornor
0 2 2017-12-29 19:46:09  TheCornor
43717 FigrCollage 2.5.6  TheCornor
0 2 2017-12-29 19:44:04  TheCornor
0 3 2017-12-29 19:39:52  TheCornor
0 3 2017-12-29 19:35:46  TheCornor
0 3 2017-12-29 19:33:35  TheCornor
0 3 2017-12-29 19:29:23  TheCornor
0 3 2017-12-29 19:27:20  TheCornor
43723 Macrium Reflect 7.1.2801  TheCornor
0 3 2017-12-29 19:25:14  TheCornor
0 3 2017-12-29 19:21:03  TheCornor
43725 BWMeter 7.3.4  TheCornor
0 4 2017-12-29 19:18:57  TheCornor
0 3 2017-12-29 19:16:52  TheCornor
0 4 2017-12-29 19:14:44  TheCornor
0 2 2017-12-29 19:12:40  TheCornor
0 3 2017-12-29 19:06:09  TheCornor
43730 VoodooPad 5.1.8  TheCornor
0 2 2017-12-29 19:04:03  TheCornor
0 2 2017-12-29 18:56:31  TheCornor
0 2 2017-12-29 18:54:25  TheCornor
0 2 2017-12-29 18:52:18  TheCornor
43734 MuTools MUX Modular 7.7.0  TheCornor
0 2 2017-12-29 18:48:09  TheCornor
0 2 2017-12-29 18:46:03  TheCornor
0 4 2017-12-29 18:41:52  TheCornor
0 2 2017-12-29 18:37:42  TheCornor
0 13 2017-12-29 14:31:43  Trust_Uploader
0 13 2017-12-29 14:30:38  Trust_Uploader
43740 Sonokinetic Ostinato Brass KONTAKT  Trust_Uploader
0 14 2017-12-29 14:29:30  Trust_Uploader
43741 Permute 2.5 macOS  Trust_Uploader
0 13 2017-12-29 14:28:19  Trust_Uploader
0 14 2017-12-29 14:27:13  Trust_Uploader
43743 WM Capture 8.8.5  Trust_Uploader
0 13 2017-12-29 14:26:07  Trust_Uploader
0 13 2017-12-29 14:24:59  Trust_Uploader
43745 FigrCollage 2.5.6 macOS  Trust_Uploader
0 10 2017-12-29 14:23:55  Trust_Uploader
0 10 2017-12-29 14:22:48  Trust_Uploader
43747 Stockfolio 1.4.5  Trust_Uploader
0 10 2017-12-29 14:21:43  Trust_Uploader
0 9 2017-12-29 14:20:37  Trust_Uploader
43749 Applian Replay Video Capture 8.8.5  Trust_Uploader
0 9 2017-12-29 14:19:30  Trust_Uploader
0 44 2017-12-29 02:27:48  Trust_Uploader

Вы здесь » www.prizrak.ws » Software, ОС, программное обеспечение..